Regional Weather Roundup
Issued by NWS Kansas City/Pleasant Hill, MO

Home | Current Version | Previous Version | Text Only | Print | Product List | Glossary On
Versions: 1 2 3 4 5 6 7 8 9 10 11 12 13 14 15 16 17 18 19 20 21 22 23 24 25 26 27 28 29 30 31 32 33 34 35 36 37 38 39 40 41 42 43 44 45 46 47 48 49 50
000
ASUS43 KEAX 280710
RWREAX

WEATHER ROUNDUP FOR EASTERN KANSAS AND NORTHWEST MISSOURI
NATIONAL WEATHER SERVICE KANSAS CITY/PLEASANT HILL MO
100 AM CST FRI NOV 28 2014

KSZ040-057-103>105-MOZ028-029-037-043-280800-
...KANSAS CITY METROPOLITAN AREA...

CITY           SKY/WX    TMP DP  RH WIND       PRES   REMARKS
K.C. INTL      CLEAR     31  23  72 SE13      30.19F WCI  21
K.C. DOWNTOWN  CLEAR     33  22  63 S6        30.22F WCI  28
LEES SUMMIT    CLEAR     31  22  69 S10G18    30.22F WCI  22
OLATHE - IXD   CLEAR     30  22  72 S9        30.19F WCI  22
OLATHE - OJC   CLEAR     30  22  72 S10       30.20F WCI  21
LAWRENCE       CLEAR     28  22  78 SE10      30.20F WCI  19

$$

MOZ001>008-011>017-020>025-030>033-038>040-044>046-053-054-280800-
...NORTHERN AND CENTRAL MISSOURI...

CITY           SKY/WX    TMP DP  RH WIND       PRES   REMARKS
ST. JOSEPH     CLEAR     30  23  75 S14       30.18F WCI  19
MOSBY          SUNNY     30  25  80 SE5       30.23F WCI  25
WARRENSBURG    CLEAR     30  23  74 SE7       30.25F WCI  23
WHITEMAN AFB   CLEAR     31  23  73 SE7       30.25F WCI  24
CLINTON        CLEAR     32  27  80 CALM      30.28F
SEDALIA        FAIR      29  24  82 SE9       30.28F WCI  20
WARSAW         NOT AVBL
MARSHALL       CLEAR     30  27  86 SE6       30.29F WCI  24
CHILLICOTHE      N/A     29  23  78 SE8       30.25F WCI  21
KIRKSVILLE     MOCLDY    20  15  81 E9        30.30F WCI   9

$$

MOZ041-047>049-056>058-063>065-088>090-097-280800-
...EASTERN AND SOUTHERN MISSOURI...

CITY           SKY/WX    TMP DP  RH WIND       PRES   REMARKS
ST. LOUIS INTL CLOUDY    26  19  74 SE9       30.40F WCI  17
SPIRIT OF STL  CLOUDY    27  19  72 E7        30.38F WCI  19
COLUMBIA       PTCLDY    29  24  82 SE9       30.31F WCI  20
JEFFERSON CITY PTCLDY    30  25  81 E6        30.34F WCI  24
MEXICO         MOCLDY    30  27  86 SE5       30.33F WCI  25
ROLLA            N/A     29  21  72 SE10      30.29F WCI  20
LEBANON        CLEAR     30  23  74 SE5       30.28F WCI  25
OSAGE BEACH    CLEAR     28  21  74 SE5       30.30F WCI  23
SPRINGFIELD    CLEAR     34  22  61 S14       30.27F WCI  25
BRANSON        CLEAR     30  23  74 SE3       30.31F
NEVADA         CLEAR     28  23  80 SE8       30.26F WCI  20
JOPLIN         CLEAR     34  23  64 S8        30.26F WCI  27
WEST PLAINS    CLEAR     29  20  69 S5        30.34F WCI  24

$$

IAZ060-094-KSZ022-034>040-054-083-096-NEZ052-066-093-280800-
...KANSAS...SOUTHEAST NEBRASKA AND IOWA...

CITY           SKY/WX    TMP DP  RH WIND       PRES   REMARKS
TOPEKA         CLEAR     31  23  72 SE8       30.16F WCI  23
MANHATTAN      CLEAR     34  22  61 S7        30.09F WCI  28
EMPORIA        CLEAR     30  23  75 SE12      30.15F WCI  20
CHANUTE        CLEAR     31  24  75 SE8       30.22F WCI  23
WICHITA        PTCLDY    38  23  55 S16       30.12F WCI  29
OMAHA          CLEAR     26  19  74 SE17      30.09F WCI  13
LINCOLN        CLEAR     26  18  71 S5        30.05F WCI  20
FALLS CITY     CLEAR     28  22  78 SE14      30.11F WCI  17
LAMONI         PTCLDY    23  19  85 SE9       30.20F WCI  13
DES MOINES     CLOUDY    15   7  70 SE12      30.22F WCI   2

$$



USA.gov is the U.S. government's official web portal to all federal, state and local government web resources and services.